Weather in Zarechnoye

Ukraine / Rovno District     51°49′31″N   26°08′34″E
temp.,
°C
wind,
m/s
gust,
m/s
humid.,
%
clouds,
%
prec.,
mm/h
press.,
hPa
HPBL,
m
15 may, sat
sat1500:00+12sw2393100 0.0 100549
03:00+10sw269695 0.0 1005130
06:00+9sw269898 0.0 1006152
09:00+13sw358585 0.0 1007436
12:00+14w4584100 0.1 1008670
15:00+15w4675100 0.1 1009843
18:00+17w256464 0.0 10091238
21:00+13wnw238454 0.1 101079
16 may, sun
sun1600:00+10wsw22935 0.0 101012
03:00+8ssw229319 0.0 101119
06:00+8s229160 0.0 101119
09:00+15se3466100 0.0 1011361
12:00+19sse4657100 0.0 10101172
15:00+22sse474868 0.0 10082044
18:00+21sse596112 0.4 10071265
21:00+15sse5128499 4.1 1007394
17 may, mon
mon1700:00+13se2693100 0.2 1007161
03:00+12ssw2497100 0.4 1007114
06:00+12w379893 4.6 1007322
09:00+12ssw1294100 4.7 1008194
12:00+18w1162100 0.0 10071088
15:00+19nw2252100 0.2 10061629
18:00+18n3463100 0.0 1005576
21:00+13n128372 0.0 100411
18 may, tue
tue1800:00+11n11871 0.0 100410
03:00+10nne119281 0.0 100310
06:00+10wnw2393100 0.0 100268
09:00+12wnw5887100 0.1 1003614
12:00+11wnw4995100 2.4 1004608
15:00+16wnw686599 2.6 10041438
18:00+15wnw697290 0.6 10041193
21:00+12w41081100 0.6 1006419
19 may, wed
wed1900:00+10w4119162 0.0 1007438
03:00+8w4109691 0.0 1008358
06:00+7w4109858 0.0 1008378
09:00+10w51084100 0.0 1010642
12:00+13wnw486996 0.1 10101274
15:00+16w685467 0.5 10101734
18:00+15wnw59635 0.8 10101574
21:00+10w38845 0.9 1012209